Location: Unnamed Road
(35.9029°N, 51.9749°E)
Time: 09:16:27
(UTC+04:30)

Transit 2A - All Passes

Search period start: 28 May 2020 00:00
Search period end: 07 June 2020 00:00
Orbit: 593 x 965 km, 66.7° (Epoch: 27 May)

Date Brightness Start Highest point End Pass type
(mag) Time Alt. Az. Time Alt. Az. Time Alt. Az.
28 May - 00:10:05 10° NNW 00:16:22 75° ENE 00:22:43 10° SSE visible
28 May - 01:55:16 10° WNW 01:58:58 16° WSW 02:02:40 10° SW visible
28 May - 14:47:29 10° SSW 14:52:12 75° WNW 14:57:30 10° NNE daylight
28 May - 16:35:26 10° NW 16:36:31 11° NW 16:37:36 10° NNW daylight
28 May - 23:36:03 10° NNW 23:42:10 53° ENE 23:48:21 10° SE visible
29 May - 01:20:09 10° NW 01:25:03 24° WSW 01:29:58 10° SSW visible
29 May - 14:13:24 10° SSW 14:18:05 71° ESE 14:23:20 10° NNE daylight
29 May - 15:59:05 10° W 16:01:59 15° NW 16:05:02 10° N daylight
29 May - 23:02:07 10° NNW 23:07:54 38° NE 23:13:46 10° ESE visible
30 May - 00:45:27 10° NW 00:51:05 35° WSW 00:56:43 10° S visible
30 May - 13:39:35 10° S 13:44:03 44° ESE 13:49:00 10° NE daylight
30 May - 15:23:46 10° W 15:27:31 21° NW 15:31:35 10° N daylight
30 May - 22:28:17 10° N 22:33:34 28° NE 22:38:55 10° ESE visible
31 May - 00:11:00 10° NW 00:17:04 51° WSW 00:23:09 10° S visible
31 May - 13:06:04 10° SSE 13:10:04 28° ESE 13:14:28 10° NE daylight
31 May - 14:48:51 10° WSW 14:53:09 30° NW 14:57:52 10° N daylight
31 May - 21:54:37 10° N 21:59:10 21° NE 22:03:46 10° E visible
31 May - 23:36:42 10° NNW 23:42:59 73° WSW 23:49:18 10° SSE visible
01 Jun - 12:32:59 10° SSE 12:36:11 18° ESE 12:39:36 10° ENE daylight
01 Jun - 14:14:14 10° SW 14:18:50 45° WNW 14:23:59 10° NNE daylight
01 Jun - 21:21:12 10° N 21:24:41 15° NE 21:28:12 10° E visible
01 Jun - 23:02:31 10° NNW 23:08:51 81° ENE 23:15:13 10° SSE visible
02 Jun - 00:48:03 10° WNW 00:51:23 15° WSW 00:54:43 10° SW visible
02 Jun - 12:01:01 10° ESE 12:02:21 11° E 12:03:42 10° E daylight
02 Jun - 13:39:51 10° SW 13:44:37 69° WNW 13:49:58 10° NNE daylight
02 Jun - 15:28:50 10° NW 15:29:01 10° NW 15:29:12 10° NW daylight
02 Jun - 20:48:36 10° NNE 20:50:08 11° NE 20:51:40 10° NE visible
02 Jun - 22:28:28 10° NNW 22:34:40 57° ENE 22:40:54 10° SE visible
03 Jun - 00:12:46 10° WNW 00:17:29 22° WSW 00:22:11 10° SSW visible
03 Jun - 13:05:44 10° SSW 13:10:29 78° ESE 13:15:50 10° NNE daylight
03 Jun - 14:51:43 10° WNW 14:54:28 14° NW 14:57:22 10° NNW daylight
03 Jun - 21:54:30 10° NNW 22:00:24 41° ENE 22:06:21 10° SE visible
03 Jun - 23:38:00 10° NW 23:43:31 32° WSW 23:49:02 10° SSW visible
04 Jun - 12:31:50 10° S 12:36:25 49° ESE 12:41:32 10° NE daylight
04 Jun - 14:16:18 10° W 14:19:59 20° NW 14:23:59 10° N daylight
04 Jun - 21:20:39 10° N 21:26:05 30° NE 21:31:34 10° ESE visible
04 Jun - 23:03:30 10° NW 23:09:31 47° WSW 23:15:31 10° S visible
05 Jun - 11:58:15 10° S 12:02:27 31° ESE 12:07:03 10° NE daylight
05 Jun - 13:41:20 10° WSW 13:45:36 29° NW 13:50:17 10° N daylight
05 Jun - 20:46:56 10° N 20:51:41 22° NE 20:56:29 10° E visible
05 Jun - 22:29:11 10° NNW 22:35:27 68° WSW 22:41:43 10° SSE visible
06 Jun - 11:25:03 10° SSE 11:28:32 20° ESE 11:32:17 10° ENE daylight
06 Jun - 13:06:39 10° SW 13:11:17 42° WNW 13:16:26 10° NNE daylight
06 Jun - 20:13:27 10° N 20:17:14 16° NE 20:21:02 10° E daylight
06 Jun - 21:54:58 10° NNW 22:01:20 86° ENE 22:07:40 10° SSE visible
06 Jun - 23:40:53 10° WNW 23:43:47 13° WSW 23:46:41 10° SW visible
